Location: Harburg
(48.7667°N, 10.6667°E)
Time: 15:30:35
(UTC+00:00)

Cosmos 1891 Rocket - Pass Details

Date: 18 September 2020
Orbit: 934 x 1018 km, 82.9° (Epoch: 23 October)

Event Time Altitude Azimuth Distance (km) Brightness Sun altitude
Rises 18:25:14 0° 174° (S) 3,645 7.3 -10.9°
Reaches altitude 10° 18:27:47 10° 170° (S) 2,690 6.6 -11.3°
Maximum altitude 18:33:47 59° 93° (E) 1,091 4.5 -12.3°
Drops below altitude 10° 18:39:43 10° 16° (NNE) 2,665 6.8 -13.2°
Sets 18:42:14 0° 13° (NNE) 3,608 7.6 -13.6°
